Header for Extended Forecast Station List Page

Search by: ID | Name | Date | Parm | Value | Avg | % Avg
Sort by: ID | Name | Date | Parm | Value | Avg | % Avg

Enter search or view all records.

Click on id for station plot
#IDNameDateParmValueAvg% Avg
0HWRI1BIG LOST-AT HOWELL RANCH NEAR CHILLY11-28-2016DISCHARGE (KAF)2319123
1MACI1BIG LOST-MACKAY RESERVOIR NEAR MACKAY11-28-2016INFLOW (KAF)4141008
2HALI1BIG WOOD-AT HAILEY11-28-2016DISCHARGE (KAF)3837104
3MAGI1BIG WOOD-MAGIC DAM11-28-2016INFLOW (KAF)313589
4BITM8BITTERROOT-NEAR MISSOULA11-28-2016DISCHARGE (KAF)17922181
5BONM8BLACKFOOT-NEAR BONNER11-28-2016DISCHARGE (KAF)10613479
6BIGI1BOISE-AT GLENWOOD BRIDGE11-28-2016DISCHARGE (KAF)13745306
7LUCI1BOISE-LUCKY PEAK DAM11-28-2016INFLOW (KAF)179MM
8PARI1BOISE-NEAR PARMA11-28-2016DISCHARGE (KAF)273223123
9HOTI1BRUNEAU-NEAR HOT SPRINGS11-28-2016DISCHARGE (KAF)293679
10BULO3BULLY CREEK-BULLY CREEK DAM11-28-2016INFLOW (KAF)597851
11BUDW1BUMPING-BUMPING LAKE DAM11-28-2016INFLOW (KAF)263869
12CHDW1CHELAN-LAKE CHELAN DAM11-28-2016INFLOW (KAF)209167125
13ABOM8CLARK FORK-ABOVE MISSOULA11-28-2016DISCHARGE (KAF)26233778
14DLGM8CLARK FORK-AT DEER LODGE11-28-2016DISCHARGE (KAF)456273
15SRGM8CLARK FORK-AT ST REGIS11-28-2016DISCHARGE (KAF)57276375
16BELM8CLARK FORK-BELOW MISSOULA11-28-2016DISCHARGE (KAF)44256878
17CABI1CLARK FORK-CABINET GORGE DAM11-28-2016INFLOW (KAF)3407386288
18NOXM8CLARK FORK-NOXON RAPIDS DAM11-28-2016INFLOW (KAF)3093368384
19DRMM8CLARK FORK-NR DRUMMOND11-28-2016DISCHARGE (KAF)102MM
20CLUW1CLE ELUM-CLE ELUM LAKE11-28-2016INFLOW (KAF)7910575
21ORFI1CLEARWATER-AT OROFINO11-28-2016DISCHARGE (KAF)65591871
22SPDI1CLEARWATER-AT SPALDING11-28-2016DISCHARGE (KAF)1519206973
23COEI1COEUR D ALENE-COEUR D ALENE LAKE11-28-2016INFLOW (KAF)964106890
24CIBW1COLUMBIA-AT INTL BOUNDARY11-28-2016DISCHARGE (KAF)21063MM
25BONO3COLUMBIA-BONNEVILLE DAM11-28-2016INFLOW (KAF)35587MM
26CHJW1COLUMBIA-CHIEF JOSEPH DAM11-28-2016INFLOW (KAF)2412522767106
27GCDW1COLUMBIA-GRAND COULEE DAM11-28-2016INFLOW (KAF)2255316997133
28JDAO3COLUMBIA-JOHN DAY DAM11-28-2016INFLOW (KAF)3392033745101
29MCDW1COLUMBIA-MCNARY DAM11-28-2016INFLOW (KAF)3234132158101
30PRWW1COLUMBIA-PRIEST RAPIDS DAM11-28-2016INFLOW (KAF)2516621050120
31RRHW1COLUMBIA-ROCKY REACH DAM11-28-2016INFLOW (KAF)2492023738105
32TDAO3COLUMBIA-THE DALLES DAM11-28-2016INFLOW (KAF)345713820790
33WANW1COLUMBIA-WANAPUM DAM11-28-2016INFLOW (KAF)2516520744121
34WELW1COLUMBIA-WELLS DAM11-28-2016INFLOW (KAF)2450523176106
35DEDI1DEADWOOD-NEAR LOWMAN11-28-2016INFLOW (KAF)141973
36MODO3DESCHUTES-AT MOODY NR BIGGS11-28-2016DISCHARGE (KAF)1446153095
37ARDW1ENTIAT-NEAR ARDENVOIR11-28-2016DISCHARGE (KAF)3123137
38CHEI1FALL RIVER-NEAR CHESTER11-28-2016DISCHARGE (KAF)9811089
39CFMM8FLATHEAD-AT COLUMBIA FALLS11-28-2016DISCHARGE (KAF)1059114093
40KERM8FLATHEAD-KERR DAM11-28-2016INFLOW (KAF)1249149783
41TRYO3GRANDE RONDE-TROY11-28-2016DISCHARGE (KAF)27245859
42REXI1HENRYS FORK-AT REXBURG11-28-2016DISCHARGE (KAF)38842791
43ANTI1HENRYS FORK-AT ST. ANTHONY11-28-2016DISCHARGE (KAF)31934393
44IPDI1HENRYS FORK-ISLAND PARK DAM11-28-2016INFLOW (KAF)7811170
45HODO3HOOD-NEAR TUCKER BRIDGE11-28-2016DISCHARGE (KAF)294273108
46SERO3JOHN DAY-AT SERVICE CK11-28-2016DISCHARGE (KAF)29436780
47KADW1KACHESS-KACHESS DAM11-28-2016INFLOW (KAF)364974
48LAUW1KETTLE-AT LAURIER11-28-2016DISCHARGE (KAF)191127151
49PITW1KLICKITAT-NEAR PITT11-28-2016DISCHARGE (KAF)430375115
50BFEI1KOOTENAI-AT BONNERS FERRY11-28-2016STAGE (FT)MMM
51LEOI1KOOTENAI-AT LEONIA11-28-2016DISCHARGE (KAF)29601301228
52LYDM8KOOTENAI-LIBBY DAM11-28-2016INFLOW (KAF)1068781137
53LWRI1LITTLE WOOD-LITTLE WOOD DAM11-28-2016INFLOW (KAF)121673
54BERO3MALHEUR-AGENCY VALLEY DAM11-28-2016INFLOW (KAF)242788
55VALO3MALHEUR-NEAR VALE11-28-2016DISCHARGE (KAF)4641110
56WRMO3MALHEUR-WARM SPRINGS DAM11-28-2016INFLOW (KAF)6649136
57MYKO3MCKAY CREEK-NEAR PILOT ROCK11-28-2016DISCHARGE (KAF)3730121
58PATW1METHOW-NEAR PATEROS11-28-2016DISCHARGE (KAF)10597108
59WGCM8MF FLATHEAD-NEAR WEST GLACIER11-28-2016DISCHARGE (KAF)183149123
60CLFW1NACHES-NEAR CLIFFDEL11-28-2016DISCHARGE (KAF)8912471
61NACW1NACHES-NEAR NACHES11-28-2016DISCHARGE (KAF)7811369
62DWRI1NF CLEARWATER-DWORSHAK DAM11-28-2016INFLOW (KAF)56070879
63FCFM8NF FLATHEAD-NEAR COLUMBIA FALLS11-28-2016DISCHARGE (KAF)279168166
64MONO3NF JOHN DAY-AT MONUMENT11-28-2016DISCHARGE (KAF)16522175
65CSDI1NF PAYETTE-CASCADE DAM11-28-2016INFLOW (KAF)6710365
66TONW1OKANOGAN-NEAR TONASKET11-28-2016DISCHARGE (KAF)26828893
67OWYO3OWYHEE-OWYHEE DAM11-28-2016INFLOW (KAF)8714759
68EMMI1PAYETTE-NEAR EMMETT11-28-2016DISCHARGE (KAF)24242158
69ALFW1PEND OREILLE-ALBENI FALLS DAM11-28-2016INFLOW (KAF)3838453985
70HOPI1PEND OREILLE-PEND OREILLE LAKE NR HOPE11-28-2016LAKE ELEVATION (FT)MMM
71PIHI1PORTNEUF-AT POCATELLO11-28-2016DISCHARGE (KAF)387253
72PRTI1PRIEST-NEAR PRIEST RIVER11-28-2016DISCHARGE (KAF)253211120
73RCCM8ROCK CREEK-NEAR CLINTON11-28-2016DISCHARGE (KAF)444597
74WHBI1SALMON-AT WHITEBIRD11-28-2016DISCHARGE (KAF)924107086
75ARAI1SF BOISE-ANDERSON RANCH DAM11-28-2016INFLOW (KAF)688778
76HHWM8SF FLATHEAD-HUNGRY HORSE DAM11-28-2016INFLOW (KAF)237237100
77PLDI1SF SNAKE-PALISADES DAM11-28-2016INFLOW (KAF)52759189
78SIFI1SNAKE-AB EAGLE ROCK NR IDAHO FALLS11-28-2016DISCHARGE (KAF)77580297
79AFRI1SNAKE-AMERICAN FALLS RESERVOIR11-28-2016INFLOW (KAF)1289150586
80SNAI1SNAKE-AT BLACKFOOT11-28-2016DISCHARGE (KAF)68174991
81MILI1SNAKE-AT MILNER11-28-2016DISCHARGE (KAF)16990
82WEII1SNAKE-AT WEISER11-28-2016DISCHARGE (KAF)2610401865
83SWAI1SNAKE-BELOW SWAN FALLS11-28-2016DISCHARGE (KAF)1669265363
84BRNI1SNAKE-BROWNLEE DAM11-28-2016INFLOW (KAF)2869419668
85IHDW1SNAKE-ICE HARBOR DAM11-28-2016INFLOW (KAF)6396885672
86JLKW4SNAKE-JACKSON LAKE AT DAM11-28-2016INFLOW (KAF)10911794
87LGSW1SNAKE-LITTLE GOOSE DAM11-28-2016INFLOW (KAF)5960871168
88LGDW1SNAKE-LOWER GRANITE DAM11-28-2016INFLOW (KAF)5960864469
89LMNW1SNAKE-LOWER MONUMENTAL DAM11-28-2016INFLOW (KAF)6396891772
90ALPW4SNAKE-NEAR ALPINE11-28-2016DISCHARGE (KAF)34236793
91ANAW1SNAKE-NEAR ANATONE11-28-2016DISCHARGE (KAF)4444642669
92BFTI1SNAKE-NEAR BLACKFOOT11-28-2016DISCHARGE (KAF)68179286
93HEII1SNAKE-NEAR HEISE11-28-2016DISCHARGE (KAF)555555100
94JKSW4SNAKE-NEAR JACKSON11-28-2016DISCHARGE (KAF)302299101
95SHYI1SNAKE-NEAR SHELLEY11-28-2016DISCHARGE (KAF)75281692
96LLKW1SPOKANE-AT LONGLAKE11-28-2016INFLOW (KAF)1231158678
97SPOW1SPOKANE-AT SPOKANE11-28-2016DISCHARGE (KAF)947MM
98SJMI1ST JOE-AT ST MARIES11-28-2016STAGE (FT)MMM
99SATI1ST MARIES-NEAR SANTA11-28-2016DISCHARGE (KAF)386162
100STRM8ST. REGIS-NEAR ST. REGIS11-28-2016DISCHARGE (KAF)314963
101TNAW1TEANAWAY-BELOW FORKS11-28-2016DISCHARGE (KAF)285947
102TEAI1TETON-NEAR ST. ANTHONY11-28-2016DISCHARGE (KAF)819685
103RILW1TIETON-RIMROCK LAKE NEAR RIMROCK11-28-2016INFLOW (KAF)567377
104PDTO3UMATILLA-AT PENDLETON11-28-2016DISCHARGE (KAF)12513097
105GIBO3UMATILLA-NEAR GIBBON11-28-2016DISCHARGE (KAF)485096
106UMAO3UMATILLA-NEAR UMATILLA11-28-2016DISCHARGE (KAF)154132116
107TCHW1WALLA WALLA-NEAR TOUCHET11-28-2016DISCHARGE (KAF)192184105
108WSRI1WEISER-NEAR WEISER11-28-2016DISCHARGE (KAF)15917491
109PESW1WENATCHEE-AT PESHASTIN11-28-2016DISCHARGE (KAF)24731478
110UNDW1WHITE SALMON-NEAR UNDERWOOD11-28-2016DISCHARGE (KAF)298297100
111RIDI1WILLOW CREEK-RIRIE DAM11-28-2016INFLOW (KAF)91088
112EASW1YAKIMA-AT EASTON11-28-2016DISCHARGE (KAF)658081
113KIOW1YAKIMA-AT KIONA11-28-2016DISCHARGE (KAF)63183176
114UMTW1YAKIMA-AT UMTANUM11-28-2016DISCHARGE (KAF)25731681
115KEDW1YAKIMA-KEECHELUS LAKE11-28-2016INFLOW (KAF)395079
116PARW1YAKIMA-NEAR PARKER11-28-2016DISCHARGE (KAF)45257279